SCP
1 0 0 0 0 0 0 0 0 0 0 0 0 0 0 0 0 0 0 0 0 0 0 0 0 0 0 0 0 0 0 0 0 0 0 0 0 0 0 0 0 0 0 0
0 0 0 0 0 0 0 0 0 0 0 0 0 0 0 0 0 0 0 0 0 0 0 0 0 0 0 0 0 0 0 0 0 0 0 0 0 0 0 0 0 0 0 0
0 0 0 0 0 0 0 0 0 0 0 0 0 0 0 0 0 0 0 0 0 0 0 0 0 0 0 0 0 0 0 0 0 0 0 0 0 0 0 0 0 0 0 0
0 0 0 0 0 0 0 0 0 0 0 0 0 0 0 0 0 0 0 0 0 0 0 0 0 0 0 0 0 0 0 0 0 0 0 0 0 0 0 0 0 0 0 0
0 0 0 0 0 0 0 0 0 0 0 0 0 0 0 0 0 0 0 0 0 0 0 0 0 0 0 0 0 0 0 0 0 0 0 0 0 0 0 0 0 0 0 0
0 0 0 0 0 0 0 0 0 0 0 0 0 0 0 0 0 0 0 0 0 0 0 0 0 0 0 0 0 0 0 0 0 0 0 0 0 0 0 0 0 0 0 0
0 0 0 0 0 0 0 0 0 0 0 0 0 0 0 0 0 0 0 0 0 0 0 0 0 0 0 0 0 0 0 0 0 0 0 0 0 0 0 0 0 0 0 0
0 0 0 0 0 0 0 0 0 0 0 0 0 0 0 0 0 0 0 0 0 0 0 0 0 0 0 0 0 0 0 0 0 0 0 0 0 0 0 0 0 0 0 0
0 0 0 0 0 0 0 0 0 0 0 0 0 0 0 0 0 0 0 0 0 0 0 0 0 0 0 0 0 0 1 0 0 0 0 0 0 0 0 0 0 1 1 0
0 0 0 0 0 0 0 0 0 0 0 0 0 0 0 0 0 0 0 0 0 0 0 0 0 0 0 0 0 0 1 1 0 0 0 0 0 0 0 0 1 1 1 1
0 0 0 0 0 0 0 0 0 0 0 0 0 0 0 0 0 0 0 0 0 0 0 0 0 0 0 0 0 0 0 0 0 0 0 0 0 0 0 0 1 1 1 1
0 0 0 0 0 0 0 0 0 0 0 0 0 0 0 0 0 0 0 0 0 0 0 0 0 0 0 0 0 0 0 0 0 0 0 0 0 0 1 1 1 1 1 0
0 0 0 0 0 0 0 0 0 0 0 0 0 0 0 0 0 0 0 0 0 0 0 0 0 0 0 0 0 0 0 0 0 0 0 0 0 0 1 1 1 1 1 0
0 0 0 0 0 0 0 0 0 0 0 0 0 0 0 0 0 0 0 0 0 0 0 0 0 0 0 0 0 0 0 0 0 0 0 0 0 0 1 1 1 1 0 0
0 0 0 0 0 0 0 0 0 0 0 0 0 0 0 0 0 0 0 0 0 0 0 0 0 0 0 0 0 0 0 0 0 0 0 0 0 0 0 0 0 0 0 0
0 0 0 0 0 0 0 0 0 0 0 0 0 0 0 0 0 0 0 0 0 0 0 0 0 0 0 0 0 0 0 0 0 0 0 0 0 0 0 0 0 0 0 0
0 0 0 0 0 0 0 0 0 0 0 0 0 0 0 0 0 0 0 0 0 0 0 0 0 0 0 0 0 0 0 0 0 0 0 0 0 0 0 0 0 0 0 0
0 0 0 0 0 0 0 0 0 0 0 0 0 0 0 0 0 0 0 0 0 0 0 0 0 0 0 0 0 0 0 0 0 0 0 0 0 0 0 0 0 0 0 0
0 0 0 0 0 0 0 0 0 0 0 0 0 0 0 0 0 0 0 0 0 0 0 0 0 0 0 0 0 0 0 0 0 0 0 0 0 0 0 0 0 0 0 0
0 0 0 0 0 0 0 0 0 0 0 0 0 0 0 0 0 0 0 0 0 0 0 0 0 0 0 0 0 0 0 0 0 0 0 0 0 0 0 0 0 0 0 0
0 0 0 0 0 0 0 0 0 0 0 0 0 0 0 0 0 0 0 0 0 0 0 0 0 0 0 0 0 0 0 0 0 0 0 0 0 0 0 0 0 0 0 0
0 0 0 0 0 0 0 0 0 0 0 0 0 0 0 0 0 0 0 0 0 0 0 0 0 0 0 0 0 0 0 0 0 0 0 0 0 0 0 0 0 0 0 0
0 0 0 0 0 0 0 0 0 0 0 0 0 0 0 0 0 0 0 0 0 0 0 0 0 0 0 0 0 0 0 0 0 0 0 0 0 0 0 0 0 0 0 0
0 0 0 0 0 0 0 0 0 0 0 0 0 0 0 0 0 0 0 0 0 0 0 0 0 0 0 0 0 0 0 0 0 0 0 0 0 0 0 0 0 0 0 0
0 0 0 0 0 0 0 0 0 0 0 0 0 0 0 0 0 0 0 0 0 0 0 0 0 0 0 0 0 0 0 0 0 0 0 0 0 0 0 0 0 0 0 0
0 0 0 0 0 0 0 0 0 0 0 0 0 0 0 0 0 0 0 0 0 0 0 0 0 0 0 0 0 0 0 0 0 0 0 0 0 0 0 0 0 0 0 0
Wind_Speed
11 11 18 22 21 13 10 13 13 10 8 10 12 13 12 10 9 9 8 8 9 11 11 12 12 12 12 12 13 14 14 14 11 9 9 8 7 6 5 5 7 8 8 8
12 22 23 17 17 15 14 12 11 7 6 7 8 12 12 12 12 11 10 10 10 9 10 12 13 13 14 14 14 14 15 15 14 11 10 7 7 6 6 5 7 9 9 9
23 19 19 18 17 19 17 14 10 5 3 2 3 9 13 14 13 12 11 10 10 10 11 13 14 15 14 15 16 14 16 16 16 13 9 7 6 5 6 8 8 9 10 10
22 15 20 19 20 19 18 12 8 5 4 4 7 7 9 13 16 17 15 12 12 10 10 12 14 15 16 16 14 14 15 16 16 15 13 14 12 11 11 8 8 8 10 10
17 19 22 24 23 18 8 7 7 5 5 4 6 7 7 8 13 15 15 15 13 12 11 12 14 16 15 15 14 14 14 15 16 16 16 15 12 10 8 8 9 10 9 10
11 11 16 15 14 12 8 6 4 1 3 9 12 10 8 8 11 9 12 14 15 13 12 12 12 13 13 13 13 13 14 15 16 17 17 17 16 13 11 12 12 10 8 10
12 10 10 12 13 11 13 11 6 7 9 11 10 11 11 7 7 8 8 9 11 12 13 12 11 12 13 14 15 14 15 16 16 17 18 18 18 16 15 14 13 11 10 10
17 16 16 13 16 14 17 17 11 10 8 5 7 12 9 6 5 3 4 4 5 6 8 9 10 11 13 14 14 15 16 16 16 17 18 17 17 13 12 13 11 12 11 11
17 15 12 12 10 14 16 16 8 2 2 3 7 7 7 5 4 5 6 6 7 6 6 7 8 9 10 12 13 14 15 15 15 16 15 15 15 15 13 12 12 9 9 9
9 10 14 11 7 10 11 10 6 6 7 6 6 9 8 8 11 10 9 9 9 7 6 6 6 7 8 9 10 11 12 13 13 13 13 12 14 14 13 11 12 11 10 10
6 8 13 13 17 19 14 16 10 8 6 6 6 7 7 11 11 11 11 9 9 8 7 6 5 5 5 5 7 8 9 10 10 11 11 11 11 12 12 11 11 10 9 11
8 5 10 14 8 13 12 14 14 11 8 6 4 7 1 5 6 6 6 5 4 4 4 4 4 4 4 5 6 7 8 8 8 8 8 9 10 10 11 11 11 10 10 10
12 9 11 9 6 9 16 16 18 11 6 5 6 10 4 4 4 4 4 4 4 4 4 3 4 4 5 6 6 6 7 7 6 6 7 7 8 9 10 10 9 9 9 9
13 8 11 17 14 15 17 19 19 14 9 9 12 12 5 6 6 6 6 6 6 6 6 5 5 6 6 6 6 6 6 6 5 5 6 7 7 8 8 7 8 8 9 9
10 9 8 7 10 17 16 19 20 20 16 13 15 19 16 9 8 7 7 7 7 6 6 7 7 6 6 6 6 6 6 6 6 6 6 7 5 5 5 5 6 6 7 8
9 9 8 6 7 16 16 20 21 23 23 20 16 20 15 9 8 8 8 8 8 8 8 7 7 7 7 7 7 6 6 6 6 6 6 5 4 4 4 4 4 5 5 6
10 9 10 8 6 7 14 25 26 24 23 23 24 26 9 8 10 10 9 9 9 9 8 7 7 7 7 7 7 8 7 5 6 5 4 4 4 4 4 4 4 5 6 6
8 8 5 6 9 14 12 13 16 20 23 22 22 18 12 11 9 8 8 9 8 8 7 6 5 5 5 5 6 6 5 6 6 5 4 4 4 4 4 4 4 4 4 5
9 9 6 7 9 7 6 15 22 22 22 22 24 21 12 7 5 8 7 7 8 7 6 5 5 4 4 5 5 6 5 5 5 5 5 5 5 5 5 5 5 4 4 4
9 8 6 7 8 13 13 11 13 11 20 20 21 20 13 9 12 12 7 7 6 5 3 3 3 3 4 3 5 6 6 5 6 5 5 4 5 5 6 5 5 3 4 4
11 9 10 7 6 9 8 10 15 17 18 11 15 15 12 16 16 8 7 5 4 3 1 2 3 3 2 3 5 5 5 5 4 4 4 4 4 4 4 4 4 4 4 5
13 9 11 8 7 11 7 13 16 11 3 4 9 11 12 12 8 5 5 5 4 4 3 4 4 3 3 3 5 4 3 3 4 5 5 4 4 4 4 5 5 5 5 6
10 10 7 10 9 4 5 7 4 3 4 3 3 3 5 6 6 5 4 4 4 4 4 4 5 5 4 3 3 4 2 3 5 5 4 4 4 4 4 5 6 5 5 4
4 4 4 4 5 4 2 1 0 1 2 2 2 2 3 5 5 5 5 5 5 5 4 4 5 5 4 3 4 3 3 4 5 5 4 4 4 4 3 3 3 4 4 4
2 3 5 5 2 1 2 1 1 1 2 3 3 3 3 6 6 6 6 5 5 5 4 4 5 5 5 4 5 4 3 4 5 5 4 4 3 4 3 3 2 2 2 3
0 1 5 5 3 3 3 1 0 2 2 2 4 4 4 5 7 7 7 6 6 6 5 6 6 6 6 5 6 5 3 3 4 4 4 3 3 3 3 3 2 2 2 2
Wind_Direction
173 187 200 200 205 215 205 203 214 217 198 200 222 234 239 234 234 225 225 226 214 203 190 183 181 179 179 181 181 180 180 182 180 183 187 190 192 190 194 194 185 181 181 183
174 209 207 201 206 222 233 229 219 215 193 199 233 245 243 236 229 223 221 222 222 206 188 181 180 180 183 186 187 186 185 184 185 188 188 189 185 191 194 195 193 188 186 184
198 203 197 202 203 211 221 225 220 205 155 191 269 265 242 241 236 231 224 221 221 209 195 183 183 186 187 191 192 191 189 187 188 185 181 182 187 185 192 199 199 197 191 188
212 203 191 201 206 203 216 214 220 208 179 214 198 262 237 226 226 224 221 218 220 217 204 189 185 189 193 197 193 193 191 189 188 186 187 186 191 196 196 193 195 194 194 193
205 200 193 200 203 200 200 179 204 213 210 243 221 248 258 232 229 220 214 212 214 214 209 198 190 193 195 193 193 195 194 194 190 190 193 194 200 200 192 187 190 194 197 199
212 202 198 198 194 189 151 119 100 112 211 236 221 229 258 217 227 219 211 208 209 210 209 206 196 189 192 189 190 193 197 199 195 194 196 200 203 199 194 193 193 195 196 200
198 206 192 173 169 170 159 148 163 189 209 231 197 216 246 219 222 213 215 211 207 206 205 203 196 188 190 190 192 194 198 203 200 198 200 203 205 204 204 200 197 193 195 200
184 194 190 182 180 176 182 179 180 186 200 217 181 219 244 224 216 208 220 230 230 214 203 198 195 192 193 193 194 196 201 206 203 202 204 205 205 206 210 209 203 199 200 201
188 195 182 188 169 162 180 201 210 152 120 200 216 230 249 210 204 216 227 233 238 232 220 207 199 195 193 194 196 199 203 208 208 207 206 207 206 207 210 209 209 204 201 196
176 176 172 172 162 191 182 175 176 191 178 211 231 218 219 187 205 215 220 222 227 225 225 216 205 199 196 195 197 200 205 210 211 210 209 209 209 209 208 207 209 207 200 192
185 162 163 168 188 184 173 185 184 185 200 187 218 239 204 191 194 204 213 213 212 208 204 204 200 196 194 193 195 202 209 214 214 213 213 211 210 207 206 209 209 205 198 193
182 159 172 185 191 191 192 188 184 185 199 208 218 257 172 137 154 169 185 185 176 175 180 184 188 190 192 200 204 206 209 214 217 215 215 215 212 206 206 209 208 201 199 194
167 158 153 169 197 204 204 199 199 200 177 187 200 246 183 144 157 168 174 173 173 184 193 187 187 197 205 206 206 209 208 211 213 212 215 217 213 209 209 208 203 198 196 192
165 172 186 190 188 180 193 199 198 196 202 209 217 233 208 184 192 194 190 194 195 199 202 203 208 211 210 208 208 207 209 203 202 204 212 218 216 213 211 204 198 196 192 189
173 181 202 207 165 170 189 196 197 205 207 210 223 231 232 209 205 205 198 194 196 202 206 209 211 211 209 208 211 209 205 197 193 199 209 217 214 209 200 194 191 188 188 187
175 177 182 208 190 181 191 198 201 209 214 223 233 242 233 218 220 221 214 203 207 215 218 216 213 208 208 207 204 203 203 196 187 199 209 203 193 191 192 189 179 177 176 170
174 162 171 192 183 171 204 200 201 208 214 217 227 236 222 213 217 221 220 214 214 218 221 220 215 211 210 205 198 199 196 184 183 195 199 191 182 183 188 179 171 176 175 168
180 160 153 150 159 209 225 200 204 214 220 219 231 239 222 218 220 222 215 211 219 223 225 224 219 214 203 191 184 179 170 172 179 187 191 185 177 178 176 176 180 175 164 169
189 167 162 170 191 225 240 194 197 207 227 221 230 237 229 218 245 248 221 209 214 218 218 216 205 198 183 175 168 158 164 167 177 187 189 186 178 176 175 180 178 165 157 160
189 175 172 173 189 215 225 191 183 192 242 224 222 229 218 197 230 240 205 207 214 217 216 207 177 150 153 160 148 154 168 173 189 186 180 173 173 175 178 176 163 151 150 152
186 189 195 187 201 240 229 168 153 189 231 212 213 222 205 207 224 219 175 188 189 182 172 138 129 131 144 139 140 157 166 187 179 157 151 154 160 164 162 152 144 140 138 136
185 187 193 189 200 234 206 161 179 205 177 175 200 210 207 213 212 190 167 164 145 121 95 96 108 101 86 109 135 149 164 152 132 134 139 145 147 145 145 143 139 138 142 144
191 191 181 194 211 220 171 175 181 153 175 189 191 210 193 193 198 184 161 142 122 114 101 93 110 101 75 78 113 133 127 125 126 127 133 135 133 132 142 149 148 145 149 151
219 194 174 201 226 204 191 132 84 96 158 164 155 165 157 158 147 133 126 117 109 99 97 99 108 107 88 71 76 94 108 119 124 128 128 129 134 135 137 141 148 155 163 165
211 190 195 213 238 184 220 201 197 84 85 81 68 75 118 132 129 127 121 113 106 97 92 97 106 103 90 76 68 67 88 112 117 119 121 125 128 133 134 126 134 153 168 180
116 176 197 210 210 217 230 274 221 151 141 135 119 90 74 109 122 115 108 101 100 96 90 90 89 91 84 76 64 46 52 93 116 117 119 120 122 123 124 123 102 106 124 140